| time (UTC) | temp F | wind direction | speed MPH | gust MPH | rain 1hr in | rain 24hr in | rain mn in | humidity % | barometer mb |
| 20260906233122 | 60 | 90 | 0.0 | 0.0 | 0.00 | 0.00 | 0.00 | 83 | 1017.8 |
| 20260906232143 | 60 | 113 | 1.0 | 10.0 | 0.00 | 0.00 | 0.00 | 83 | 1017.8 |
| 20260906231143 | 61 | 100 | 2.0 | 17.0 | 0.00 | 0.00 | 0.00 | 80 | 1017.9 |
| 20260906230122 | 61 | 109 | 3.0 | 14.0 | 0.00 | 0.00 | 0.00 | 79 | 1017.8 |
| 20260906225122 | 61 | 113 | 3.0 | 17.0 | 0.00 | 0.00 | 0.00 | 80 | 1017.9 |
| 20260906224143 | 61 | 110 | 1.0 | 14.0 | 0.00 | 0.00 | 0.00 | 79 | 1018.0 |
| 20260906223123 | 61 | 108 | 5.0 | 19.0 | 0.00 | 0.00 | 0.00 | 78 | 1018.0 |
| 20260906222124 | 61 | 113 | 3.0 | 13.0 | 0.00 | 0.00 | 0.00 | 78 | 1018.2 |
| 20260906221149 | 61 | 119 | 5.0 | 13.0 | 0.00 | 0.00 | 0.00 | 82 | 1018.1 |
| 20260906221145 | 61 | 120 | 5.0 | 13.0 | 0.00 | 0.00 | 0.00 | 82 | 1018.1 |
| 20260906220123 | 61 | 158 | 0.0 | 0.0 | 0.00 | 0.00 | 0.00 | 82 | 1018.0 |
| 20260906215123 | 60 | 95 | 0.0 | 4.0 | 0.00 | 0.00 | 0.00 | 84 | 1018.1 |
| 20260906214123 | 60 | 135 | 0.0 | 13.0 | 0.00 | 0.00 | 0.00 | 86 | 1018.1 |
| 20260906213123 | 60 | 113 | 0.0 | 8.0 | 0.00 | 0.00 | 0.00 | 89 | 1018.2 |
| 20260906212123 | 58 | 113 | 0.0 | 0.0 | 0.00 | 0.00 | 0.00 | 92 | 1018.2 |
| 20260906211124 | 57 | 117 | 1.0 | 13.0 | 0.00 | 0.00 | 0.00 | 95 | 1018.4 |
| 20260906210123 | 57 | 101 | 0.0 | 8.0 | 0.00 | 0.00 | 0.00 | 96 | 1018.4 |
| 20260906205123 | 57 | 118 | 1.0 | 11.0 | 0.00 | 0.00 | 0.00 | 97 | 1018.4 |
| 20260906204144 | 56 | 125 | 1.0 | 16.0 | 0.00 | 0.00 | 0.00 | 97 | 1018.4 |
| 20260906203123 | 56 | 121 | 3.0 | 18.0 | 0.00 | 0.00 | 0.00 | 97 | 1018.6 |
| 20260906202123 | 56 | 118 | 1.0 | 13.0 | 0.00 | 0.00 | 0.00 | 97 | 1018.7 |
| 20260906201123 | 57 | 117 | 2.0 | 15.0 | 0.00 | 0.00 | 0.00 | 94 | 1018.7 |
| 20260906200123 | 58 | 133 | 1.0 | 9.0 | 0.00 | 0.00 | 0.00 | 89 | 1018.7 |
| 20260906195123 | 59 | 119 | 1.0 | 8.0 | 0.00 | 0.00 | 0.00 | 88 | 1018.9 |
| 20260906194144 | 59 | 147 | 1.0 | 9.0 | 0.00 | 0.00 | 0.00 | 88 | 1018.9 |
| 20260906193124 | 59 | 147 | 1.0 | 9.0 | 0.00 | 0.00 | 0.00 | 87 | 1018.9 |
| 20260906192123 | 59 | 109 | 1.0 | 8.0 | 0.00 | 0.00 | 0.00 | 87 | 1018.9 |
| 20260906191123 | 58 | 143 | 2.0 | 13.0 | 0.00 | 0.00 | 0.00 | 87 | 1019.0 |
| 20260906190123 | 58 | 140 | 1.0 | 13.0 | 0.00 | 0.00 | 0.00 | 87 | 1019.1 |
| 20260906185145 | 59 | 225 | 0.0 | 3.0 | 0.00 | 0.00 | 0.00 | 86 | 1019.2 |
| 20260906184123 | 58 | 162 | 1.0 | 10.0 | 0.00 | 0.00 | 0.00 | 86 | 1019.2 |
| 20260906183123 | 58 | 165 | 2.0 | 11.0 | 0.00 | 0.00 | 0.00 | 86 | 1019.2 |
| 20260906182123 | 58 | 123 | 6.0 | 19.0 | 0.00 | 0.00 | 0.00 | 87 | 1019.4 |
| 20260906181123 | 58 | 123 | 2.0 | 16.0 | 0.00 | 0.00 | 0.00 | 86 | 1019.5 |
| 20260906180124 | 58 | 133 | 6.0 | 19.0 | 0.00 | 0.00 | 0.00 | 86 | 1019.5 |
| 20260906175123 | 59 | 119 | 8.0 | 20.0 | 0.00 | 0.00 | 0.00 | 85 | 1019.5 |
| 20260906174123 | 59 | 115 | 8.0 | 20.0 | 0.00 | 0.00 | 0.00 | 83 | 1019.5 |
| 20260906173123 | 60 | 128 | 5.0 | 20.0 | 0.00 | 0.00 | 0.00 | 81 | 1019.5 |
| 20260906172144 | 58 | 127 | 4.0 | 18.0 | 0.00 | 0.00 | 0.00 | 83 | 1019.5 |
| 20260906171123 | 59 | 120 | 3.0 | 13.0 | 0.00 | 0.00 | 0.00 | 84 | 1019.6 |
| 20260906170123 | 58 | 126 | 1.0 | 15.0 | 0.00 | 0.00 | 0.00 | 84 | 1019.5 |
| 20260906165144 | 58 | 133 | 4.0 | 13.0 | 0.00 | 0.00 | 0.00 | 84 | 1019.5 |
| 20260906164124 | 59 | 90 | 0.0 | 10.0 | 0.00 | 0.00 | 0.00 | 83 | 1019.5 |
| 20260906163123 | 58 | 113 | 0.0 | 0.0 | 0.00 | 0.00 | 0.00 | 85 | 1019.6 |
| 20260906162123 | 58 | 113 | 0.0 | 0.0 | 0.00 | 0.00 | 0.00 | 85 | 1019.5 |
| 20260906161123 | 59 | 158 | 0.0 | 0.0 | 0.00 | 0.00 | 0.00 | 83 | 1019.7 |
| 20260906160125 | 58 | 130 | 0.0 | 8.0 | 0.00 | 0.00 | 0.00 | 89 | 1019.6 |
| 20260906155123 | 56 | 180 | 0.0 | 10.0 | 0.00 | 0.00 | 0.00 | 92 | 1019.7 |
| 20260906154123 | 56 | 113 | 0.0 | 0.0 | 0.00 | 0.00 | 0.00 | 93 | 1019.8 |
| 20260906153123 | 55 | 127 | 0.0 | 8.0 | 0.00 | 0.00 | 0.00 | 95 | 1019.8 |
| 20260906152124 | 55 | 113 | 1.0 | 12.0 | 0.00 | 0.00 | 0.00 | 97 | 1019.9 |
| 20260906151144 | 54 | 113 | 0.0 | 0.0 | 0.00 | 0.00 | 0.00 | 97 | 1020.0 |
| 20260906150123 | 54 | 113 | 0.0 | 0.0 | 0.00 | 0.00 | 0.00 | 97 | 1020.1 |
| 20260906145123 | 54 | 113 | 0.0 | 0.0 | 0.00 | 0.00 | 0.00 | 97 | 1020.1 |
| 20260906144123 | 54 | 180 | 0.0 | 0.0 | 0.00 | 0.00 | 0.00 | 97 | 1020.1 |
| 20260906143123 | 54 | 113 | 0.0 | 0.0 | 0.00 | 0.00 | 0.00 | 97 | 1020.2 |
| 20260906142144 | 54 | 248 | 0.0 | 0.0 | 0.00 | 0.00 | 0.00 | 97 | 1020.2 |
| 20260906141123 | 53 | 68 | 0.0 | 0.0 | 0.00 | 0.00 | 0.00 | 97 | 1020.2 |
| 20260906140125 | 53 | 158 | 0.0 | 0.0 | 0.00 | 0.00 | 0.00 | 97 | 1020.2 |
| 20260906135124 | 53 | 203 | 0.0 | 0.0 | 0.00 | 0.00 | 0.00 | 97 | 1020.2 |
| 20260906134123 | 53 | 113 | 0.0 | 0.0 | 0.00 | 0.00 | 0.00 | 97 | 1020.2 |
| 20260906133123 | 53 | 113 | 0.0 | 0.0 | 0.00 | 0.00 | 0.00 | 97 | 1020.4 |
| 20260906132123 | 52 | 113 | 0.0 | 0.0 | 0.00 | 0.00 | 0.00 | 97 | 1020.5 |
| 20260906131123 | 52 | 113 | 0.0 | 0.0 | 0.00 | 0.00 | 0.00 | 97 | 1020.6 |
| 20260906130123 | 52 | 135 | 0.0 | 0.0 | 0.00 | 0.00 | 0.00 | 97 | 1020.7 |
| 20260906125123 | 52 | 90 | 0.0 | 0.0 | 0.00 | 0.00 | 0.00 | 97 | 1020.5 |
| 20260906124123 | 52 | 113 | 0.0 | 0.0 | 0.00 | 0.00 | 0.00 | 97 | 1020.5 |
| 20260906123123 | 52 | 135 | 0.0 | 0.0 | 0.00 | 0.00 | 0.00 | 97 | 1020.2 |
| 20260906122123 | 52 | 158 | 0.0 | 0.0 | 0.00 | 0.00 | 0.00 | 97 | 1020.5 |
| 20260906121123 | 52 | 158 | 0.0 | 0.0 | 0.00 | 0.00 | 0.00 | 97 | 1020.4 |
| 20260906120123 | 52 | 90 | 0.0 | 0.0 | 0.00 | 0.00 | 0.00 | 97 | 1020.4 |
| 20260906115123 | 52 | 113 | 0.0 | 0.0 | 0.00 | 0.00 | 0.00 | 97 | 1020.2 |
| 20260906114144 | 52 | 113 | 0.0 | 0.0 | 0.00 | 0.00 | 0.00 | 97 | 1020.2 |
| 20260906113123 | 52 | 113 | 0.0 | 0.0 | 0.00 | 0.00 | 0.00 | 97 | 1020.4 |
| 20260906112145 | 52 | 113 | 0.0 | 0.0 | 0.00 | 0.00 | 0.00 | 97 | 1020.5 |
| 20260906111123 | 52 | 98 | 1.0 | 11.0 | 0.00 | 0.00 | 0.00 | 97 | 1020.8 |
| 20260906110144 | 52 | 135 | 0.0 | 0.0 | 0.00 | 0.00 | 0.00 | 97 | 1020.8 |
| 20260906105144 | 52 | 90 | 0.0 | 0.0 | 0.00 | 0.00 | 0.00 | 97 | 1021.1 |
| 20260906104123 | 52 | 113 | 0.0 | 0.0 | 0.00 | 0.00 | 0.00 | 97 | 1021.1 |
| 20260906103144 | 52 | 113 | 0.0 | 0.0 | 0.00 | 0.00 | 0.00 | 97 | 1021.1 |
| 20260906102144 | 52 | 135 | 0.0 | 0.0 | 0.00 | 0.00 | 0.00 | 97 | 1021.1 |
| 20260906101123 | 52 | 113 | 0.0 | 0.0 | 0.00 | 0.00 | 0.00 | 97 | 1021.2 |
| 20260906100144 | 52 | 113 | 0.0 | 0.0 | 0.00 | 0.00 | 0.00 | 97 | 1021.2 |
| 20260906095123 | 52 | 90 | 0.0 | 0.0 | 0.00 | 0.00 | 0.00 | 97 | 1021.2 |
| 20260906094123 | 52 | 113 | 0.0 | 0.0 | 0.00 | 0.00 | 0.00 | 97 | 1021.2 |
| 20260906093123 | 52 | 90 | 0.0 | 0.0 | 0.00 | 0.00 | 0.00 | 97 | 1021.2 |
| 20260906092123 | 52 | 90 | 0.0 | 0.0 | 0.00 | 0.00 | 0.00 | 97 | 1021.2 |
| 20260906091124 | 52 | 113 | 0.0 | 0.0 | 0.00 | 0.00 | 0.00 | 97 | 1021.4 |
| 20260906090146 | 52 | 135 | 0.0 | 0.0 | 0.00 | 0.00 | 0.00 | 97 | 1021.5 |
| 20260906085123 | 52 | 90 | 0.0 | 0.0 | 0.00 | 0.00 | 0.00 | 97 | 1021.6 |
| 20260906084123 | 52 | 135 | 0.0 | 0.0 | 0.00 | 0.00 | 0.00 | 97 | 1021.6 |
| 20260906083123 | 52 | 113 | 0.0 | 0.0 | 0.00 | 0.00 | 0.00 | 97 | 1021.8 |
| 20260906082123 | 52 | 135 | 0.0 | 5.0 | 0.00 | 0.00 | 0.00 | 97 | 1021.9 |
| 20260906081144 | 52 | 113 | 0.0 | 0.0 | 0.00 | 0.00 | 0.00 | 97 | 1021.9 |
| 20260906080123 | 52 | 113 | 0.0 | 0.0 | 0.00 | 0.00 | 0.00 | 97 | 1021.9 |
| 20260906075144 | 52 | 113 | 0.0 | 4.0 | 0.00 | 0.00 | 0.00 | 97 | 1021.8 |
| 20260906074123 | 52 | 113 | 0.0 | 0.0 | 0.00 | 0.00 | 0.00 | 97 | 1021.8 |
| 20260906073144 | 52 | 113 | 0.0 | 0.0 | 0.00 | 0.00 | 0.00 | 97 | 1021.9 |
| 20260906072144 | 52 | 113 | 1.0 | 8.0 | 0.00 | 0.00 | 0.00 | 97 | 1022.0 |
| 20260906071123 | 52 | 113 | 0.0 | 0.0 | 0.00 | 0.00 | 0.00 | 96 | 1022.0 |
| 20260906070123 | 52 | 113 | 0.0 | 0.0 | 0.00 | 0.00 | 0.00 | 96 | 1022.1 |
| 20260906065123 | 52 | 90 | 0.0 | 0.0 | 0.00 | 0.00 | 0.00 | 96 | 1022.1 |
| 20260906064144 | 52 | 90 | 0.0 | 0.0 | 0.00 | 0.00 | 0.00 | 96 | 1022.1 |
| 20260906063123 | 52 | 90 | 0.0 | 0.0 | 0.00 | 0.00 | 0.00 | 96 | 1022.1 |
| 20260906062123 | 52 | 113 | 0.0 | 0.0 | 0.00 | 0.00 | 0.00 | 96 | 1022.1 |
| 20260906061123 | 52 | 90 | 0.0 | 0.0 | 0.00 | 0.00 | 0.00 | 96 | 1022.0 |
| 20260906060123 | 52 | 90 | 0.0 | 8.0 | 0.00 | 0.00 | 0.00 | 96 | 1022.1 |
| 20260906055123 | 52 | 68 | 0.0 | 0.0 | 0.00 | 0.00 | 0.00 | 96 | 1022.2 |
| 20260906054123 | 52 | 113 | 0.0 | 0.0 | 0.00 | 0.00 | 0.00 | 95 | 1022.2 |
| 20260906053123 | 53 | 113 | 0.0 | 8.0 | 0.00 | 0.00 | 0.00 | 95 | 1022.2 |
| 20260906052123 | 53 | 90 | 0.0 | 0.0 | 0.00 | 0.00 | 0.00 | 95 | 1022.2 |
| 20260906051144 | 53 | 90 | 0.0 | 0.0 | 0.00 | 0.00 | 0.00 | 94 | 1022.1 |
| 20260906050123 | 53 | 90 | 0.0 | 0.0 | 0.00 | 0.00 | 0.00 | 94 | 1022.0 |
| 20260906045123 | 53 | 90 | 0.0 | 0.0 | 0.00 | 0.00 | 0.00 | 94 | 1022.0 |
| 20260906044123 | 53 | 90 | 0.0 | 0.0 | 0.00 | 0.00 | 0.00 | 94 | 1022.0 |
| 20260906043144 | 53 | 90 | 0.0 | 0.0 | 0.00 | 0.00 | 0.00 | 94 | 1021.9 |
| 20260906042123 | 53 | 90 | 0.0 | 0.0 | 0.00 | 0.00 | 0.00 | 93 | 1021.9 |
| 20260906041123 | 53 | 68 | 0.0 | 7.0 | 0.00 | 0.00 | 0.00 | 93 | 1022.0 |
| 20260906040124 | 53 | 45 | 0.0 | 6.0 | 0.00 | 0.00 | 0.00 | 93 | 1022.0 |
| 20260906035124 | 53 | 45 | 0.0 | 0.0 | 0.00 | 0.00 | 0.00 | 93 | 1022.0 |
| 20260906034123 | 53 | 23 | 0.0 | 0.0 | 0.00 | 0.00 | 0.00 | 92 | 1022.0 |
| 20260906033145 | 53 | 45 | 0.0 | 3.0 | 0.00 | 0.00 | 0.00 | 92 | 1021.9 |
| 20260906032123 | 53 | 90 | 0.0 | 0.0 | 0.00 | 0.00 | 0.00 | 92 | 1022.0 |
| 20260906031123 | 53 | 90 | 0.0 | 0.0 | 0.00 | 0.00 | 0.00 | 92 | 1022.0 |
| 20260906030123 | 53 | 90 | 0.0 | 0.0 | 0.00 | 0.00 | 0.00 | 91 | 1022.1 |
| 20260906025123 | 53 | 90 | 0.0 | 0.0 | 0.00 | 0.00 | 0.00 | 91 | 1022.0 |
| 20260906024123 | 53 | 90 | 0.0 | 3.0 | 0.00 | 0.00 | 0.00 | 91 | 1021.9 |
| 20260906023123 | 53 | 90 | 0.0 | 6.0 | 0.00 | 0.00 | 0.00 | 90 | 1021.9 |
| 20260906022122 | 54 | 45 | 0.0 | 3.0 | 0.00 | 0.00 | 0.00 | 90 | 1021.8 |
| 20260906021123 | 54 | 68 | 0.0 | 0.0 | 0.00 | 0.00 | 0.00 | 90 | 1021.9 |
| 20260906020123 | 54 | 90 | 0.0 | 0.0 | 0.00 | 0.00 | 0.00 | 89 | 1021.8 |
| 20260906015123 | 54 | 68 | 0.0 | 0.0 | 0.00 | 0.00 | 0.00 | 89 | 1021.8 |
| 20260906014145 | 54 | 90 | 0.0 | 0.0 | 0.00 | 0.00 | 0.00 | 89 | 1021.8 |
| 20260906013123 | 54 | 90 | 0.0 | 0.0 | 0.00 | 0.00 | 0.00 | 88 | 1021.6 |
| 20260906012144 | 54 | 90 | 0.0 | 0.0 | 0.00 | 0.00 | 0.00 | 88 | 1021.6 |
| 20260906011123 | 54 | 113 | 0.0 | 0.0 | 0.00 | 0.00 | 0.00 | 87 | 1021.6 |
| 20260906010123 | 54 | 90 | 0.0 | 0.0 | 0.00 | 0.00 | 0.00 | 87 | 1021.6 |
| 20260906005123 | 55 | 23 | 0.0 | 0.0 | 0.00 | 0.00 | 0.00 | 86 | 1021.6 |
| 20260906004123 | 55 | 45 | 0.0 | 0.0 | 0.00 | 0.00 | 0.00 | 86 | 1021.5 |
| 20260906003123 | 55 | 113 | 0.0 | 0.0 | 0.00 | 0.00 | 0.00 | 86 | 1021.5 |
| 20260906002144 | 55 | 23 | 0.0 | 0.0 | 0.00 | 0.00 | 0.00 | 86 | 1021.5 |
| 20260906001122 | 55 | 90 | 0.0 | 0.0 | 0.00 | 0.00 | 0.00 | 86 | 1021.5 |
| 20260906000123 | 55 | 68 | 0.0 | 0.0 | 0.00 | 0.00 | 0.00 | 85 | 1021.5 |
| 20260905235124 | 56 | 60 | 1.0 | 8.0 | 0.00 | 0.00 | 0.00 | 84 | 1021.5 |
| 20260905234123 | 56 | 90 | 0.0 | 0.0 | 0.00 | 0.00 | 0.00 | 84 | 1021.5 |